[[[{"header":{"parameterUnit":"kt","parameterCategory":2,"dx":1,"dy":1,"la1":30.253999710083008,"la2":30.299108505249023,"lo1":-89.0895004272461,"lo2":-89.04439544677734,"nx":28,"ny":28,"refTime":"2022-10-05T21:00:00:Z","depth":"0","parameterNumber":2,"parameterNumberName":"U-component_of_CURRENTS"},"data":[0.057,0.0715,0.0809,0.0914,0.0945,0.091,0.0853,0.0738,0.0722,0.0837,0.1075,0.1245,0.1962,0.2647,0.2701,0.2393,0.2018,0.1952,0.1675,0.1831,0.1788,0.1746,0.1794,0.2165,0.2166,0.1619,0.1618,0.1616,0.0548,0.0683,0.0785,0.0847,0.0858,0.0822,0.0731,0.0671,0.0584,0.0592,0.0598,0.1124,0.1397,0.1532,0.1808,0.166,0.1283,0.1551,0.1505,0.1313,0.1281,0.132,0.1595,0.1595,0.1595,0.1595,0.1594,0.1594,0.0529,0.0608,0.0699,0.0765,0.0762,0.0716,0.069,0.0603,0.0548,0.0494,0.0534,0.0636,0.1008,0.1065,0.0901,0.0983,0.0791,0.1048,0.1098,0.098,0.0857,0.078,0.0915,0.0913,0.0911,0.0909,0.0908,0,0.0477,0.0519,0.0579,0.0648,0.0658,0.0633,0.0599,0.0574,0.0487,0.0466,0.0465,0.0498,0.0564,0.0685,0.0695,0.0647,0.0585,0.0598,0.0693,0.097,0.0916,0.0744,0.0583,0.0731,0.0728,0.0726,0.0724,0.0723,0.0396,0.0448,0.0505,0.0533,0.0551,0.0553,0.0534,0.0468,0.0436,0.0406,0.0398,0.042,0.0442,0.045,0.0426,0.0423,0.0382,0.0528,0.0493,0.0621,0.0661,0.0562,0.042,0.0689,0.0693,0.0697,0.07,0,0.0352,0.0375,0.0437,0.0451,0.0448,0.0471,0.0433,0.0411,0.0376,0.0354,0.0352,0.0316,0.0334,0.0287,0.0268,0.0239,0.0275,0.0245,0.0412,0.0415,0.0544,0.0593,0.0663,0.0517,0.0314,0.0315,0.0317,0,0.028,0.032,0.0349,0.0388,0.0407,0.0387,0.0381,0.0353,0.0304,0.0283,0.024,0.0235,0.0177,0.0176,0.0153,0.0178,0.0156,0.016,0.0143,0.0263,0.0277,0.0362,0.0412,0.0094,0.0093,0.0093,0.0092,0,0.023,0.027,0.0323,0.0338,0.0344,0.0344,0.0322,0.0277,0.0248,0.0207,0.0199,0.0157,0.0152,0.0135,0.0122,0.0092,0.0127,0.0065,0.0111,0.0114,0.0229,0.024,0.0458,0.0092,0.0091,0.0091,0.0091,0,0.0191,0.023,0.0288,0.0303,0.0307,0.0309,0.0283,0.0253,0.0196,0.0163,0.0132,0.0083,0.0082,0.0055,0.0053,0.0034,0.0036,0.0018,0.0018,0.0039,-0.0017,0.0168,0.0297,0.0407,0.0008,0.0007,0.0006,0,0.0141,0.021,0.0228,0.026,0.0287,0.0255,0.0235,0.0196,0.0153,0.0112,0.0063,0.0022,-0.0002,-0.0017,-0.001,-0.0051,-0.002,-0.0051,-0.0077,-0.0076,-0.0047,0.0045,0.0196,0.0274,-0.0004,-0.0003,-0.0003,0,0.0118,0.0189,0.02,0.0206,0.0208,0.0199,0.0194,0.0141,0.011,0.0077,0.0025,-0.0002,-0.003,-0.006,-0.0107,-0.0096,-0.0039,-0.0119,-0.0122,-0.0096,-0.0022,0.0024,0.0035,-0.0082,-0.0081,-0.008,-0.0011,0,0.0096,0.0135,0.017,0.0168,0.016,0.0176,0.011,0.0105,0.0053,-0.002,-0.0045,-0.0086,-0.014,-0.0146,-0.0181,-0.0163,-0.0171,-0.0218,-0.025,-0.0194,-0.017,-0.0163,-0.0268,-0.027,-0.0271,-0.0272,0,0,0.0031,0.0078,0.0076,0.0096,0.0074,0.0005,0.0005,-0.0036,-0.0109,-0.0136,-0.0151,-0.023,-0.0247,-0.0282,-0.0263,-0.0269,-0.0267,-0.0267,-0.022,-0.0214,-0.0208,-0.0183,-0.0175,-0.0274,-0.0275,-0.0275,-0.0276,0,0.0012,0.0044,0.0079,0.0059,0.0012,-0.0049,-0.0039,-0.0125,-0.0165,-0.0176,-0.026,-0.0263,-0.0284,-0.0329,-0.0357,-0.0288,-0.0321,-0.0292,-0.0224,-0.023,-0.0223,-0.0216,-0.0189,-0.0181,-0.0279,-0.0278,-0.0278,0,-0.0054,-0.0068,-0.0055,-0.0077,-0.0129,-0.0148,-0.0245,-0.0254,-0.0289,-0.0363,-0.0373,-0.0403,-0.0451,-0.0432,-0.0416,-0.0431,-0.0361,-0.0386,-0.038,-0.0368,-0.0378,-0.0368,-0.036,-0.047,-0.0471,-0.0471,0,0,-0.0086,-0.0043,-0.0132,-0.0102,-0.0111,-0.0228,-0.0258,-0.0316,-0.0365,-0.0379,-0.0417,-0.0444,-0.047,-0.0456,-0.0469,-0.0422,-0.0432,-0.0408,-0.0399,-0.0391,-0.0376,-0.0383,-0.0374,-0.0473,-0.0473,-0.0473,0,0,-0.0127,-0.0176,-0.0222,-0.0177,-0.0241,-0.0364,-0.0353,-0.0427,-0.0447,-0.044,-0.0515,-0.0518,-0.0487,-0.0496,-0.0516,-0.0483,-0.0523,-0.0518,-0.0473,-0.0462,-0.0453,-0.0439,-0.0586,0,0,0,0,0,-0.0234,-0.0166,-0.0206,-0.0215,-0.0296,-0.0342,-0.036,-0.0454,-0.0504,-0.048,-0.052,-0.0552,-0.0531,-0.055,-0.0546,-0.0523,-0.0496,-0.0492,-0.0488,-0.0421,-0.0409,-0.0399,0,0,0,0,0,0,-0.0238,-0.0243,-0.0211,-0.0322,-0.0344,-0.0345,-0.0448,-0.0473,-0.0506,-0.0516,-0.055,-0.0554,-0.0596,-0.0554,-0.055,-0.0527,-0.0587,-0.0494,-0.0491,-0.0488,-0.0417,-0.0407,-0.0399,0,0,0,0,0,-0.0242,-0.0247,-0.0331,-0.0326,-0.0345,-0.0467,-0.0448,-0.047,-0.0487,-0.0554,-0.0562,-0.0553,-0.0595,-0.0593,-0.0552,-0.0528,-0.059,-0.0588,-0.0492,-0.0489,-0.0487,-0.0412,0,0,0,0,0,0,-0.0245,-0.0276,-0.034,-0.0353,-0.0333,-0.0468,-0.0483,-0.0466,-0.0521,-0.0534,-0.0559,-0.0565,-0.0594,-0.0593,-0.0591,-0.0527,-0.0592,-0.059,-0.059,-0.049,-0.0488,-0.0486,0,0,0,0,0,0,-0.0276,-0.0285,-0.0346,-0.0349,-0.0363,-0.0469,-0.0482,-0.0461,-0.0516,-0.052,-0.0531,-0.056,-0.056,-0.0592,-0.0591,-0.056,-0.0594,-0.0592,-0.0591,-0.0591,-0.0488,-0.0487,0,0,0,0,0,0,-0.0283,-0.0291,-0.0346,-0.0357,-0.0369,-0.0519,-0.045,-0.0499,-0.0604,-0.0512,-0.0607,-0.0609,-0.0555,-0.0557,-0.0591,-0.056,-0.056,-0.0593,-0.0593,-0.0592,-0.0591,0,0,0,0,0,0,0,-0.0289,-0.0189,-0.0267,-0.0363,-0.0374,-0.0475,-0.0478,-0.0481,-0.0604,-0.0605,-0.0607,-0.0608,-0.0601,-0.06,-0.0598,-0.0561,0,0,-0.0594,-0.0593,0,0,0,0,0,0,0,0,-0.0191,-0.019,-0.0268,-0.0271,-0.0274,-0.0476,-0.0478,-0.0481,-0.0604,-0.0605,-0.0606,-0.0607,-0.0601,-0.06,-0.0599,0,0,0,0,0,0,0,0,0,0,0,0,0,0,0,-0.0268,-0.0271,0,-0.0476,-0.0478,-0.048,-0.0604,-0.0605,-0.0606,-0.0607,-0.0601,-0.06,-0.0599,0,0,0,0,0,0,0,0,0,0,0,0,0,0,0,0,0,0,0,0,0,0,0,0,0,0,0,0,0,0,0,0,0,0,0,0,0,0,0,0,0,0,0,0,0,0,0,0,0,0,0,0,0,0,0,0,0,0,0,0,0,0,0,0,0,0,0,0,0]}],[{"header":{"parameterUnit":"kt","parameterCategory":2,"dx":1,"dy":1,"la1":30.253999710083008,"la2":30.299108505249023,"lo1":-89.0895004272461,"lo2":-89.04439544677734,"nx":28,"ny":28,"refTime":"2022-10-05T21:00:00:Z","depth":"0","parameterNumber":3,"parameterNumberName":"V-component_of_CURRENTS"},"data":[0.0532,0.0455,0.0386,0.0225,0.0126,-0.0006,-0.0066,-0.0097,0.0042,0.0508,0.1033,0.1423,0.1374,-0.0411,-0.1553,-0.1901,-0.2157,-0.2352,-0.2469,-0.2024,-0.1986,-0.1951,-0.1942,-0.2312,-0.2313,-0.291,-0.2915,-0.2919,0.0523,0.0439,0.0352,0.0195,0.0098,0.0031,-0.008,-0.0127,-0.0153,0.0075,0.0111,0.0404,-0.0217,-0.0677,-0.1359,-0.174,-0.1972,-0.1902,-0.1954,-0.2022,-0.1555,-0.1537,-0.1827,-0.1827,-0.1827,-0.1827,-0.1827,-0.1827,0.0465,0.0424,0.0286,0.018,0.0085,-0.0016,-0.0069,-0.0134,-0.0176,-0.0162,-0.022,-0.0113,-0.0445,-0.0833,-0.1161,-0.1579,-0.156,-0.15,-0.1555,-0.1631,-0.1739,-0.1281,-0.1498,-0.1498,-0.1497,-0.1497,-0.1497,0,0.0389,0.0317,0.0238,0.0111,0.0038,-0.0049,-0.0132,-0.0155,-0.0257,-0.0281,-0.0348,-0.0396,-0.0685,-0.0842,-0.1092,-0.1165,-0.1256,-0.1166,-0.1241,-0.1243,-0.1386,-0.1479,-0.089,-0.1091,-0.1088,-0.1086,-0.1085,-0.1084,0.0288,0.0251,0.0089,0.0034,-0.0024,-0.009,-0.014,-0.0225,-0.0265,-0.0365,-0.0387,-0.0518,-0.0566,-0.0765,-0.0909,-0.1038,-0.1032,-0.1094,-0.0971,-0.1087,-0.1137,-0.1215,-0.1297,-0.1053,-0.1057,-0.106,-0.1063,0,0.0233,0.0122,0.0053,-0.0078,-0.0112,-0.0136,-0.0228,-0.0259,-0.0316,-0.0355,-0.0371,-0.0449,-0.0548,-0.0604,-0.0638,-0.0662,-0.0836,-0.0755,-0.0801,-0.0809,-0.0998,-0.1042,-0.14,-0.1526,-0.0954,-0.0958,-0.0961,0,0.0108,0.0076,-0.0078,-0.0101,-0.0148,-0.021,-0.0241,-0.0279,-0.0331,-0.0356,-0.0387,-0.0409,-0.0411,-0.0467,-0.0444,-0.0545,-0.0503,-0.0529,-0.0534,-0.0527,-0.0537,-0.0597,-0.0637,-0.0392,-0.039,-0.0389,-0.0388,0,0.006,-0.0044,-0.0102,-0.0125,-0.0213,-0.0235,-0.0266,-0.0298,-0.0321,-0.0361,-0.0369,-0.0386,-0.0382,-0.0385,-0.0367,-0.0306,-0.0428,-0.0331,-0.0458,-0.0468,-0.0481,-0.0489,-0.0727,-0.0386,-0.0385,-0.0384,-0.0384,0,-0.0018,-0.0087,-0.0147,-0.0222,-0.0231,-0.0244,-0.027,-0.0293,-0.0324,-0.0324,-0.0326,-0.0293,-0.03,-0.0227,-0.0258,-0.0211,-0.0205,-0.0191,-0.0196,-0.0266,-0.0216,-0.0407,-0.0561,-0.0641,-0.0259,-0.0258,-0.0256,0,-0.0039,-0.0118,-0.0165,-0.0197,-0.022,-0.0234,-0.0259,-0.0264,-0.0259,-0.0266,-0.0242,-0.0211,-0.0151,-0.0111,-0.0115,-0.0061,-0.0109,-0.0031,-0.0077,-0.0081,-0.0183,-0.0315,-0.0336,-0.0523,-0.0233,-0.0235,-0.0237,0,-0.0036,-0.0153,-0.0151,-0.018,-0.0199,-0.0192,-0.022,-0.0226,-0.023,-0.0206,-0.0213,-0.0142,-0.01,-0.006,0.0009,0.0004,-0.0075,0.0057,0.0059,-0.0042,-0.0161,-0.027,-0.0297,-0.0016,-0.0017,-0.0019,-0.0219,0,-0.0103,-0.0136,-0.015,-0.0183,-0.0183,-0.0183,-0.0176,-0.0174,-0.0143,-0.0121,-0.01,-0.0019,0.0042,0.0062,0.0127,0.0108,0.0096,0.0163,0.0194,0.014,0.0058,0.0043,0.0247,0.0249,0.025,0.0252,0,0,-0.0071,-0.0116,-0.0128,-0.0152,-0.0148,-0.0113,-0.0117,-0.0108,-0.0043,-0.0037,-0.0,0.0095,0.0166,0.0188,0.0189,0.0226,0.0202,0.023,0.0176,0.0167,0.016,0.0078,0.0062,0.0255,0.0255,0.0256,0.0256,0,-0.0087,-0.0105,-0.0131,-0.0133,-0.0122,-0.0098,-0.0096,-0.005,-0.0032,0.0002,0.0077,0.0125,0.02,0.0243,0.0275,0.0248,0.0262,0.0265,0.02,0.0191,0.018,0.017,0.0088,0.0072,0.026,0.026,0.026,0,-0.0077,-0.0087,-0.0095,-0.01,-0.008,-0.0078,-0.0025,-0.0004,0.0003,0.0105,0.0139,0.0201,0.0274,0.0301,0.0321,0.0341,0.0306,0.0354,0.0347,0.0338,0.0331,0.0319,0.0308,0.0446,0.0446,0.0446,0,0,-0.0082,-0.011,-0.0087,-0.0093,-0.0092,-0.0041,-0.0022,0.0015,0.007,0.0096,0.016,0.0227,0.0274,0.0305,0.0354,0.0375,0.037,0.0373,0.0364,0.0356,0.0343,0.0334,0.0323,0.0447,0.0447,0.0447,0,0,-0.0063,-0.0064,-0.0058,-0.0067,-0.0048,0.0009,0.0018,0.0057,0.0112,0.0132,0.0214,0.0235,0.0274,0.032,0.0321,0.0358,0.04,0.0401,0.0317,0.0307,0.0299,0.0269,0.0379,0,0,0,0,0,-0.0058,-0.0074,-0.007,-0.0066,-0.0029,-0.0008,0.0002,0.0062,0.0101,0.0099,0.0173,0.0216,0.0336,0.0339,0.0354,0.0336,0.0456,0.0454,0.0453,0.0351,0.034,0.033,0,0,0,0,0,0,-0.0057,-0.0056,-0.0068,-0.0019,-0.0008,-0.0006,0.0053,0.0069,0.0102,0.0111,0.0201,0.0218,0.0272,0.0335,0.0348,0.0329,0.0375,0.0455,0.0454,0.0452,0.0347,0.0338,0.033,0,0,0,0,0,-0.0055,-0.0054,-0.0018,-0.0016,-0.0007,0.0065,0.0054,0.0068,0.0098,0.018,0.0199,0.0143,0.0269,0.0286,0.0343,0.0321,0.0366,0.0371,0.0454,0.0453,0.0452,0.0342,0,0,0,0,0,0,-0.0054,-0.0034,-0.0014,-0.0007,-0.0003,0.0068,0.0077,0.0067,0.0167,0.0184,0.0126,0.0132,0.0267,0.0281,0.0293,0.0314,0.0359,0.0364,0.0367,0.0453,0.0452,0.0452,0,0,0,0,0,0,-0.0034,-0.003,-0.001,0.0003,0.0012,0.0069,0.0077,0.0119,0.0169,0.0108,0.0116,0.0128,0.0261,0.0277,0.0287,0.035,0.0354,0.0359,0.0362,0.0364,0.0453,0.0452,0,0,0,0,0,0,-0.003,-0.0027,0.0002,0.0008,0.0016,0.0094,0.0111,0.0153,0.0155,0.0103,0.016,0.0162,0.0257,0.0268,0.0282,0.034,0.0347,0.0354,0.0357,0.0359,0.0361,0,0,0,0,0,0,0,-0.0028,-0.0077,-0.0052,0.0013,0.002,0.0054,0.0056,0.0058,0.0156,0.0157,0.0159,0.0161,0.0328,0.0333,0.0338,0.0332,0,0,0.0354,0.0356,0,0,0,0,0,0,0,0,-0.0076,-0.0076,-0.0052,-0.0051,-0.0049,0.0054,0.0056,0.0057,0.0156,0.0157,0.0159,0.016,0.033,0.0334,0.0338,0,0,0,0,0,0,0,0,0,0,0,0,0,0,0,-0.0052,-0.0051,0,0.0055,0.0056,0.0057,0.0156,0.0157,0.0159,0.016,0.0331,0.0334,0.0337,0,0,0,0,0,0,0,0,0,0,0,0,0,0,0,0,0,0,0,0,0,0,0,0,0,0,0,0,0,0,0,0,0,0,0,0,0,0,0,0,0,0,0,0,0,0,0,0,0,0,0,0,0,0,0,0,0,0,0,0,0,0,0,0,0,0,0,0,0]}]],[[{"header":{"parameterUnit":"kt","parameterCategory":2,"dx":1,"dy":1,"la1":30.253999710083008,"la2":30.299108505249023,"lo1":-89.0895004272461,"lo2":-89.04439544677734,"nx":28,"ny":28,"refTime":"2022-10-05T21:00:00:Z","depth":"2","parameterNumber":2,"parameterNumberName":"U-component_of_CURRENTS"},"data":[-0.1936,-0.1801,-0.1708,-0.1501,-0.1344,-0.1143,-0.1048,-0.0942,-0.0707,-0.0367,-0.0044,0.0123,0.0398,0.0581,0.065,0.077,0.0739,0.0711,0.0814,0.0749,0.0753,0.0805,0.0597,0,0,0,0,0,-0.195,-0.1822,-0.1675,-0.1459,-0.1341,-0.1207,-0.1045,-0.095,-0.0835,-0.0504,-0.0345,-0.0024,0.0182,0.0476,0.0813,0.0911,0.0863,0.0831,0.078,0.0785,0.079,0.0653,0.0738,0.0738,0.0738,0.0738,0,0,-0.1953,-0.1863,-0.1691,-0.1498,-0.1346,-0.1204,-0.1083,-0.0951,-0.0798,-0.0527,-0.0439,-0.0168,0.009,0.0571,0.0692,0.0881,0.0911,0.0895,0.0895,0.0896,0.0769,0.0648,0.0881,0.0882,0.0882,0.0883,0.0884,0,-0.195,-0.1866,-0.1716,-0.152,-0.1366,-0.1189,-0.1004,-0.0928,-0.0682,-0.0529,-0.0346,-0.023,0.015,0.0398,0.0707,0.0782,0.0876,0.0908,0.0975,0.0712,0.0589,0.053,0.0497,0.0835,0.0836,0.0836,0.0836,0.0837,-0.199,-0.1884,-0.1625,-0.1523,-0.1405,-0.1199,-0.1068,-0.0849,-0.0727,-0.0413,-0.0333,-0.005,0.0061,0.0428,0.0661,0.0896,0.0829,0.0918,0.0808,0.0722,0.067,0.0629,0.059,0.0843,0.0842,0.0842,0.0841,0,-0.2025,-0.1889,-0.1683,-0.1439,-0.1361,-0.122,-0.0974,-0.0833,-0.0641,-0.0429,-0.035,-0.0117,0.0106,0.0273,0.056,0.0606,0.079,0.0822,0.0656,0.0624,0.0609,0.057,0.0996,0.0997,0.0998,0.0998,0.0998,0,-0.2042,-0.1892,-0.1694,-0.1586,-0.1382,-0.1228,-0.1006,-0.086,-0.0647,-0.0487,-0.0337,-0.0204,0.0006,0.0181,0.0265,0.0452,0.0552,0.0512,0.0503,0.0399,0.0375,0.0338,0.0298,0.0657,0.0655,0.0653,0.0651,0,-0.2145,-0.1891,-0.1712,-0.1629,-0.1385,-0.1262,-0.1137,-0.0919,-0.0794,-0.0548,-0.0444,-0.0219,-0.0115,0.0063,0.0135,0.0068,0.0437,0.0354,0.0388,0.0379,0.038,0.0356,0.0648,0.0647,0.0647,0.0646,0.0645,0,-0.2162,-0.2026,-0.1801,-0.1579,-0.1511,-0.1388,-0.1142,-0.1009,-0.079,-0.0705,-0.0546,-0.0496,-0.0286,-0.0385,-0.0085,-0.0223,-0.013,-0.007,-0.0058,-0.0118,-0.0278,-0.0119,0.0151,-0.0022,-0.0028,-0.0034,-0.0039,0,-0.2297,-0.2072,-0.1983,-0.1761,-0.163,-0.1531,-0.1386,-0.1233,-0.1123,-0.0955,-0.0859,-0.0712,-0.0777,-0.0721,-0.0588,-0.05,-0.0339,-0.0544,-0.0288,-0.0279,-0.0385,-0.0123,-0.0204,0.0065,-0.0108,-0.0101,-0.0096,0,-0.2409,-0.2192,-0.2161,-0.2055,-0.1881,-0.1786,-0.1623,-0.1446,-0.1326,-0.1221,-0.1044,-0.0906,-0.0894,-0.0832,-0.0837,-0.0704,-0.0464,-0.0757,-0.0751,-0.0655,-0.013,-0.0214,-0.0176,-0.048,-0.0471,-0.0464,-0.0151,0,-0.2426,-0.2318,-0.2248,-0.2086,-0.1991,-0.1873,-0.1773,-0.1674,-0.1621,-0.1547,-0.1358,-0.13,-0.1161,-0.1141,-0.115,-0.0918,-0.0947,-0.0996,-0.1047,-0.0882,-0.0776,-0.0732,-0.1277,-0.1279,-0.128,-0.1282,0,0,-0.257,-0.2441,-0.2386,-0.2267,-0.218,-0.2137,-0.2011,-0.1939,-0.1811,-0.1732,-0.1769,-0.1538,-0.1497,-0.1309,-0.1261,-0.1259,-0.1191,-0.1262,-0.0989,-0.0957,-0.0927,-0.0815,-0.0772,-0.1284,-0.1285,-0.1285,-0.1286,0,-0.2574,-0.2524,-0.2431,-0.2346,-0.2223,-0.217,-0.2134,-0.2026,-0.1969,-0.1835,-0.1824,-0.1717,-0.1597,-0.1516,-0.1466,-0.1301,-0.1283,-0.1298,-0.1166,-0.1009,-0.0975,-0.0945,-0.0829,-0.0789,-0.129,-0.129,-0.1289,0,-0.2639,-0.2571,-0.2532,-0.241,-0.2337,-0.223,-0.2253,-0.2147,-0.2056,-0.2072,-0.1926,-0.1886,-0.1814,-0.168,-0.1618,-0.1652,-0.1361,-0.1494,-0.1483,-0.1425,-0.1264,-0.1225,-0.1191,-0.1629,-0.1631,-0.1632,0,0,-0.2642,-0.2569,-0.248,-0.241,-0.236,-0.2286,-0.2232,-0.2194,-0.2116,-0.2078,-0.2021,-0.1948,-0.186,-0.1807,-0.1729,-0.1608,-0.154,-0.1536,-0.152,-0.1507,-0.1443,-0.1279,-0.1242,-0.1636,-0.1636,-0.1637,0,0,-0.265,-0.255,-0.2534,-0.2454,-0.2366,-0.2282,-0.2218,-0.2196,-0.2108,-0.21,-0.2073,-0.2053,-0.1919,-0.1897,-0.1962,-0.1741,-0.1806,-0.1791,-0.176,-0.174,-0.1724,-0.1668,-0.1995,0,0,0,0,0,-0.2617,-0.2563,-0.255,-0.2528,-0.2404,-0.2292,-0.2272,-0.222,-0.223,-0.2172,-0.2119,-0.213,-0.1917,-0.1975,-0.1954,-0.187,-0.1696,-0.1685,-0.1675,-0.1606,-0.1585,-0.1567,0,0,0,0,0,0,-0.2608,-0.2584,-0.255,-0.2471,-0.2442,-0.2296,-0.2324,-0.2308,-0.2234,-0.223,-0.214,-0.2128,-0.211,-0.1985,-0.1966,-0.1886,-0.2002,-0.1692,-0.1683,-0.1675,-0.1599,-0.1581,-0.1567,0,0,0,0,0,-0.2601,-0.2581,-0.24,-0.2471,-0.2446,-0.2363,-0.2325,-0.2312,-0.2246,-0.2192,-0.2177,-0.2206,-0.211,-0.2091,-0.1974,-0.1894,-0.2014,-0.2008,-0.1686,-0.1679,-0.1673,-0.159,0,0,0,0,0,0,-0.2595,-0.2565,-0.2393,-0.2382,-0.2486,-0.2368,-0.2349,-0.2316,-0.2211,-0.2196,-0.2261,-0.226,-0.211,-0.2095,-0.208,-0.1896,-0.2025,-0.2018,-0.2013,-0.1681,-0.1675,-0.167,0,0,0,0,0,0,-0.2575,-0.2557,-0.2387,-0.241,-0.2402,-0.2373,-0.2356,-0.2281,-0.2211,-0.2286,-0.2282,-0.2262,-0.2134,-0.2098,-0.2086,-0.197,-0.2033,-0.2026,-0.2021,-0.2018,-0.1676,-0.1672,0,0,0,0,0,0,-0.2566,-0.255,-0.2413,-0.2406,-0.2399,-0.2277,-0.2305,-0.2182,-0.2226,-0.2292,-0.2229,-0.2231,-0.2137,-0.2124,-0.209,-0.198,-0.1973,-0.2033,-0.2028,-0.2025,-0.2023,0,0,0,0,0,0,0,-0.2559,-0.2682,-0.2454,-0.2403,-0.2397,-0.2285,-0.2282,-0.2279,-0.2227,-0.2228,-0.2229,-0.223,-0.2071,-0.2064,-0.2056,-0.1987,0,0,-0.2033,-0.203,0,0,0,0,0,0,0,0,-0.2687,-0.2683,-0.2454,-0.2452,-0.245,-0.2285,-0.2282,-0.228,-0.2227,-0.2228,-0.2229,-0.223,-0.2069,-0.2063,-0.2057,0,0,0,0,0,0,0,0,0,0,0,0,0,0,0,-0.2454,-0.2452,0,-0.2284,-0.2282,-0.228,-0.2227,-0.2228,-0.2229,-0.2229,-0.2067,-0.2062,-0.2057,0,0,0,0,0,0,0,0,0,0,0,0,0,0,0,0,0,0,0,0,0,0,0,0,0,0,0,0,0,0,0,0,0,0,0,0,0,0,0,0,0,0,0,0,0,0,0,0,0,0,0,0,0,0,0,0,0,0,0,0,0,0,0,0,0,0,0,0,0]}],[{"header":{"parameterUnit":"kt","parameterCategory":2,"dx":1,"dy":1,"la1":30.253999710083008,"la2":30.299108505249023,"lo1":-89.0895004272461,"lo2":-89.04439544677734,"nx":28,"ny":28,"refTime":"2022-10-05T21:00:00:Z","depth":"2","parameterNumber":3,"parameterNumberName":"V-component_of_CURRENTS"},"data":[-0.045,-0.0413,-0.0382,-0.0244,-0.0127,0.0033,0.0129,0.0202,0.0211,0.019,0.0128,-0.0108,-0.0157,-0.0377,-0.048,-0.0464,-0.0347,-0.0488,-0.025,-0.0194,-0.0166,-0.0125,-0.0356,0,0,0,0,0,-0.0458,-0.04,-0.0319,-0.0199,-0.0103,-0.0006,0.0172,0.0229,0.037,0.0396,0.0446,0.0181,-0.0025,-0.0038,-0.0217,-0.0362,-0.0356,-0.0321,-0.0297,-0.0269,-0.0242,-0.0406,-0.0527,-0.0526,-0.0526,-0.0526,0,0,-0.0445,-0.0411,-0.0332,-0.0231,-0.0112,0.002,0.0101,0.0246,0.0394,0.0537,0.0643,0.064,0.0467,0.0128,0.0085,0.0047,0.0059,-0.003,-0.0017,-0.0,-0.0155,-0.0213,-0.0209,-0.0207,-0.0205,-0.0204,-0.0203,0,-0.0437,-0.0402,-0.0342,-0.0232,-0.0141,-0.0021,0.0103,0.0189,0.0351,0.0485,0.0693,0.0738,0.0738,0.0555,0.0409,0.0333,0.0308,0.0258,0.0554,0.002,-0.0027,-0.0024,-0.0024,0.0032,0.0035,0.0037,0.0039,0.004,-0.0422,-0.0396,-0.028,-0.0221,-0.018,-0.0085,-0.0002,0.0107,0.0211,0.0454,0.054,0.0679,0.0714,0.077,0.0586,0.051,0.0588,0.0347,0.0126,0.0306,0.0312,0.0299,0.0286,0.0076,0.0072,0.0068,0.0065,0,-0.0406,-0.036,-0.0293,-0.0196,-0.0158,-0.0106,0.0026,0.0114,0.0199,0.0347,0.0366,0.0484,0.0571,0.0559,0.0631,0.0498,0.0512,0.0496,0.0357,0.0345,0.0311,0.0295,0.0432,0.0429,0.0426,0.0424,0.0422,0,-0.0371,-0.0329,-0.0257,-0.0236,-0.0147,-0.0114,-0.0011,0.0031,0.0133,0.0241,0.0221,0.0328,0.028,0.0368,0.0334,0.0345,0.0456,0.0243,0.026,0.0127,0.0105,0.0312,0.0301,0.0386,0.0384,0.0382,0.038,0,-0.0372,-0.031,-0.0263,-0.0247,-0.0178,-0.0139,-0.01,-0.0031,0.0033,0.0093,0.0162,0.0176,0.0225,0.0226,0.0234,0.0167,0.0369,0.0299,0.0222,0.0217,0.0152,0.0133,0.0378,0.0378,0.0377,0.0376,0.0376,0,-0.0371,-0.0343,-0.0295,-0.0224,-0.0212,-0.0185,-0.0106,-0.0072,-0.0008,0.0012,0.0031,0.0031,0.0062,-0.0028,0.0071,0.0006,0.0036,0.0067,0.0077,-0.0022,-0.0037,0.003,0.0044,0.0214,0.0211,0.0209,0.0207,0,-0.0368,-0.034,-0.0346,-0.0297,-0.0281,-0.0275,-0.0236,-0.0207,-0.0185,-0.0121,-0.0137,-0.0088,-0.0174,-0.0153,-0.0149,-0.0087,-0.0043,-0.015,0.0066,0.0075,-0.006,-0.004,-0.0187,0.0016,0.0177,0.018,0.0182,0,-0.0395,-0.039,-0.0391,-0.0373,-0.0378,-0.0353,-0.0333,-0.0294,-0.0242,-0.0262,-0.0186,-0.02,-0.0203,-0.0174,-0.0174,-0.0149,-0.0085,-0.0154,-0.015,-0.0051,0.0082,-0.006,-0.0052,-0.0107,-0.0105,-0.0104,0.0158,0,-0.0416,-0.041,-0.0404,-0.0423,-0.0405,-0.0383,-0.0384,-0.0367,-0.0367,-0.0344,-0.03,-0.0289,-0.0229,-0.024,-0.0239,-0.0187,-0.0147,-0.0167,-0.0144,-0.0136,-0.0019,-0.0,-0.0204,-0.0203,-0.0202,-0.0201,0,0,-0.0438,-0.0446,-0.0474,-0.047,-0.045,-0.0461,-0.0435,-0.0421,-0.038,-0.035,-0.0382,-0.0292,-0.0277,-0.0209,-0.023,-0.0212,-0.0154,-0.0197,-0.0147,-0.0142,-0.0136,-0.0026,-0.0009,-0.02,-0.02,-0.0199,-0.0199,0,-0.0467,-0.0485,-0.0491,-0.0483,-0.0476,-0.046,-0.046,-0.0429,-0.0416,-0.0382,-0.0362,-0.0341,-0.0279,-0.0248,-0.0222,-0.0206,-0.0145,-0.0203,-0.0198,-0.0143,-0.0139,-0.0135,-0.0025,-0.0011,-0.0197,-0.0197,-0.0197,0,-0.0504,-0.0515,-0.0518,-0.0512,-0.0493,-0.0474,-0.0467,-0.0439,-0.0418,-0.0385,-0.0346,-0.0327,-0.0276,-0.0243,-0.0225,-0.0213,-0.0122,-0.0172,-0.0175,-0.0153,-0.0094,-0.009,-0.0086,-0.0137,-0.0137,-0.0137,0,0,-0.0527,-0.0542,-0.0532,-0.0515,-0.0513,-0.0478,-0.0454,-0.0443,-0.0407,-0.0391,-0.0358,-0.0319,-0.0285,-0.0261,-0.0225,-0.0178,-0.0118,-0.0168,-0.0171,-0.0174,-0.0154,-0.0096,-0.0092,-0.0137,-0.0137,-0.0137,0,0,-0.0524,-0.054,-0.055,-0.0534,-0.0513,-0.0463,-0.0438,-0.0423,-0.0384,-0.0387,-0.0347,-0.0336,-0.0307,-0.0268,-0.028,-0.0222,-0.0207,-0.0203,-0.0254,-0.0257,-0.026,-0.0249,-0.026,0,0,0,0,0,-0.0558,-0.0544,-0.0554,-0.055,-0.0505,-0.0465,-0.0453,-0.0425,-0.0422,-0.0409,-0.0379,-0.0361,-0.0273,-0.0282,-0.0266,-0.0264,-0.0143,-0.0142,-0.0141,-0.0196,-0.02,-0.0203,0,0,0,0,0,0,-0.0556,-0.0554,-0.0553,-0.0511,-0.0499,-0.0465,-0.046,-0.0451,-0.0424,-0.0424,-0.0366,-0.0359,-0.0332,-0.0287,-0.0273,-0.0273,-0.0265,-0.0142,-0.0141,-0.0141,-0.0197,-0.02,-0.0203,0,0,0,0,0,-0.0555,-0.0553,-0.0503,-0.0508,-0.0498,-0.0456,-0.0462,-0.0454,-0.043,-0.0381,-0.0373,-0.0414,-0.0332,-0.0319,-0.0279,-0.028,-0.0274,-0.0269,-0.0142,-0.0141,-0.014,-0.0199,0,0,0,0,0,0,-0.0553,-0.0526,-0.0499,-0.0492,-0.0527,-0.0457,-0.0451,-0.0457,-0.0389,-0.0381,-0.0428,-0.0429,-0.0331,-0.0321,-0.0312,-0.0286,-0.0281,-0.0276,-0.0273,-0.0141,-0.0141,-0.014,0,0,0,0,0,0,-0.0527,-0.0521,-0.0495,-0.0521,-0.0517,-0.0457,-0.0453,-0.0398,-0.0388,-0.0438,-0.0437,-0.043,-0.0353,-0.0322,-0.0315,-0.0228,-0.0287,-0.0282,-0.0279,-0.0277,-0.0141,-0.014,0,0,0,0,0,0,-0.0522,-0.0518,-0.0522,-0.0519,-0.0515,-0.0436,-0.0406,-0.0366,-0.0403,-0.0442,-0.0407,-0.0409,-0.0355,-0.0347,-0.0317,-0.0233,-0.0229,-0.0287,-0.0283,-0.0281,-0.028,0,0,0,0,0,0,0,-0.0519,-0.0575,-0.0543,-0.0517,-0.0514,-0.0432,-0.043,-0.0428,-0.0403,-0.0405,-0.0406,-0.0408,-0.0314,-0.0309,-0.0303,-0.0238,0,0,-0.0287,-0.0285,0,0,0,0,0,0,0,0,-0.0574,-0.0575,-0.0542,-0.0541,-0.054,-0.0432,-0.043,-0.0428,-0.0403,-0.0405,-0.0406,-0.0407,-0.0312,-0.0308,-0.0304,0,0,0,0,0,0,0,0,0,0,0,0,0,0,0,-0.0542,-0.0541,0,-0.0432,-0.043,-0.0429,-0.0403,-0.0405,-0.0406,-0.0407,-0.0311,-0.0308,-0.0304,0,0,0,0,0,0,0,0,0,0,0,0,0,0,0,0,0,0,0,0,0,0,0,0,0,0,0,0,0,0,0,0,0,0,0,0,0,0,0,0,0,0,0,0,0,0,0,0,0,0,0,0,0,0,0,0,0,0,0,0,0,0,0,0,0,0,0,0,0]}]],[[{"header":{"parameterUnit":"kt","parameterCategory":2,"dx":1,"dy":1,"la1":30.253999710083008,"la2":30.299108505249023,"lo1":-89.0895004272461,"lo2":-89.04439544677734,"nx":28,"ny":28,"refTime":"2022-10-05T21:00:00:Z","depth":"4","parameterNumber":2,"parameterNumberName":"U-component_of_CURRENTS"},"data":[-0.0145,-0.0151,-0.0147,-0.0101,-0.0061,-0.004,-0.004,-0.0043,-0.0037,-0.0029,0.0014,0.006,0.0154,0.0097,0.0281,0.0306,0.021,0.0452,0.0455,0.0244,0.0225,0.0209,0.0192,0,0,0,0,0,-0.0149,-0.014,-0.0151,-0.0129,-0.0118,-0.0103,-0.0121,-0.0137,-0.0127,-0.0085,-0.0087,0.0002,0.0138,0.0166,0.0264,0.0279,0.0258,0.04,0.0218,0.0232,0.0212,0.0203,0,0,0,0,0,0,-0.0148,-0.0147,-0.0159,-0.0161,-0.0157,-0.0135,-0.0146,-0.0137,-0.0138,-0.0115,-0.0085,-0.0012,0.0007,0.0124,0.0196,0.0271,0.0238,0.0212,0.0194,0.0174,0.0169,0.0217,0.0405,0,0,0,0,0,-0.0145,-0.0155,-0.0158,-0.0168,-0.0177,-0.0169,-0.0178,-0.0175,-0.018,-0.0188,-0.0136,-0.0069,0.0025,0.0066,0.0158,0.0175,0.0083,0.015,0.0136,0.0014,0.0043,0.0034,0.0016,0.0133,0.013,0.0129,0.0128,0,-0.0141,-0.0156,-0.0169,-0.0174,-0.0181,-0.0194,-0.02,-0.0222,-0.023,-0.0202,-0.0194,-0.0138,-0.0128,0.0006,0.0006,0.0076,0.0053,0.0098,-0.0033,0.0009,0.0007,-0.0006,-0.0018,0.0111,0.0112,0.0114,0.0115,0,-0.0151,-0.0159,-0.0174,-0.0193,-0.0194,-0.0205,-0.0217,-0.0228,-0.0246,-0.0236,-0.0241,-0.0257,-0.02,-0.0188,-0.0183,-0.0159,-0.0111,-0.0075,-0.0227,-0.023,-0.0045,-0.005,0.0083,0.009,0.0095,0.0099,0.0103,0,-0.0155,-0.0166,-0.0177,-0.0187,-0.0195,-0.0217,-0.0226,-0.0239,-0.0261,-0.0253,-0.0293,-0.0293,-0.0338,-0.0306,-0.0323,-0.0237,-0.0303,-0.0235,-0.0221,-0.0427,-0.043,-0.0406,-0.0408,-0.04,-0.0401,-0.0402,-0.0402,0,-0.014,-0.0169,-0.0175,-0.0189,-0.0207,-0.0215,-0.0224,-0.0243,-0.0252,-0.0278,-0.0281,-0.0325,-0.0347,-0.0363,-0.0365,-0.041,-0.034,-0.0407,-0.0273,-0.0262,-0.0411,-0.0411,-0.0403,-0.0403,-0.0403,-0.0404,-0.0404,0,-0.014,-0.0149,-0.0167,-0.0185,-0.0192,-0.0205,-0.0223,-0.0238,-0.0256,-0.0271,-0.0312,-0.0343,-0.0381,-0.0416,-0.0432,-0.0453,-0.0462,-0.0468,-0.0465,-0.0306,-0.031,-0.0397,-0.0421,-0.0421,-0.0422,-0.0423,-0.0423,0,-0.0123,-0.0139,-0.0148,-0.0174,-0.0189,-0.0203,-0.0216,-0.023,-0.0246,-0.026,-0.031,-0.0358,-0.0404,-0.0449,-0.0467,-0.0496,-0.0492,-0.0524,-0.0469,-0.0466,-0.0317,-0.0303,-0.0537,-0.0433,-0.0432,-0.0431,-0.043,0,-0.0111,-0.0127,-0.0136,-0.0147,-0.0176,-0.0181,-0.0201,-0.0214,-0.0225,-0.0259,-0.0277,-0.0377,-0.0401,-0.0436,-0.0493,-0.0501,-0.0502,-0.0512,-0.0511,-0.0448,-0.0477,-0.0332,-0.0312,-0.0539,-0.0538,-0.0538,-0.0437,0,-0.011,-0.0123,-0.0129,-0.0151,-0.0159,-0.0175,-0.019,-0.02,-0.0217,-0.0227,-0.0288,-0.0347,-0.0401,-0.044,-0.0473,-0.0516,-0.0496,-0.0518,-0.0479,-0.0513,-0.0464,-0.0459,-0.0509,-0.0508,-0.0508,-0.0507,0,0,-0.0107,-0.0114,-0.0118,-0.0132,-0.0144,-0.0153,-0.0168,-0.0177,-0.0206,-0.0216,-0.0227,-0.0327,-0.0365,-0.0435,-0.0465,-0.049,-0.0473,-0.0465,-0.0508,-0.0509,-0.0509,-0.0464,-0.046,-0.0506,-0.0506,-0.0506,-0.0505,0,-0.0109,-0.0112,-0.0116,-0.0129,-0.0144,-0.0149,-0.0155,-0.0171,-0.018,-0.0216,-0.0251,-0.0303,-0.0356,-0.0392,-0.0421,-0.0479,-0.0449,-0.0507,-0.0499,-0.0504,-0.0505,-0.0506,-0.0462,-0.0459,-0.0504,-0.0504,-0.0504,0,-0.0114,-0.0119,-0.012,-0.0127,-0.0136,-0.0147,-0.0148,-0.0159,-0.0171,-0.0193,-0.0221,-0.0266,-0.0309,-0.036,-0.0384,-0.0366,-0.0411,-0.0423,-0.0427,-0.0397,-0.0399,-0.0401,-0.0403,-0.037,-0.0369,-0.0369,0,0,-0.0118,-0.0121,-0.013,-0.0129,-0.0134,-0.0146,-0.0149,-0.0156,-0.0178,-0.0188,-0.0207,-0.0243,-0.0291,-0.0308,-0.0341,-0.038,-0.0351,-0.0406,-0.0412,-0.0417,-0.0391,-0.0394,-0.0397,-0.0367,-0.0367,-0.0367,0,0,-0.012,-0.013,-0.0134,-0.0132,-0.014,-0.0147,-0.0148,-0.0156,-0.0181,-0.0191,-0.0208,-0.0215,-0.0269,-0.0274,-0.0248,-0.033,-0.0306,-0.0311,-0.0322,-0.033,-0.0336,-0.0296,-0.0233,0,0,0,0,0,-0.0134,-0.013,-0.0134,-0.0134,-0.014,-0.0146,-0.0147,-0.015,-0.0158,-0.0159,-0.0193,-0.0186,-0.0269,-0.0246,-0.0252,-0.0281,-0.0342,-0.0347,-0.0351,-0.0375,-0.0384,-0.0391,0,0,0,0,0,0,-0.0134,-0.0135,-0.0134,-0.0141,-0.0142,-0.0146,-0.0148,-0.0149,-0.0157,-0.0158,-0.0181,-0.0186,-0.0194,-0.0242,-0.0248,-0.0276,-0.0231,-0.0344,-0.0348,-0.0351,-0.0378,-0.0385,-0.0391,0,0,0,0,0,-0.0135,-0.0135,-0.0144,-0.0141,-0.0142,-0.0146,-0.0148,-0.0148,-0.0157,-0.0173,-0.0177,-0.016,-0.0193,-0.02,-0.0246,-0.0274,-0.0227,-0.0229,-0.0346,-0.0349,-0.0352,-0.0381,0,0,0,0,0,0,-0.0135,-0.0137,-0.0144,-0.0145,-0.014,-0.0146,-0.0147,-0.0148,-0.0172,-0.0175,-0.0151,-0.0151,-0.0193,-0.0198,-0.0203,-0.0273,-0.0224,-0.0226,-0.0227,-0.0349,-0.0351,-0.0353,0,0,0,0,0,0,-0.0136,-0.0137,-0.0144,-0.0143,-0.0143,-0.0146,-0.0147,-0.017,-0.0173,-0.015,-0.015,-0.0151,-0.0195,-0.0197,-0.0201,-0.0236,-0.0221,-0.0223,-0.0225,-0.0226,-0.0351,-0.0352,0,0,0,0,0,0,-0.0137,-0.0137,-0.0143,-0.0143,-0.0144,-0.015,-0.0167,-0.0179,-0.0153,-0.015,-0.0153,-0.0153,-0.0195,-0.0198,-0.02,-0.0232,-0.0235,-0.0221,-0.0223,-0.0224,-0.0225,0,0,0,0,0,0,0,-0.0137,-0.0131,-0.0141,-0.0143,-0.0144,-0.015,-0.015,-0.015,-0.0153,-0.0153,-0.0153,-0.0153,-0.0209,-0.0212,-0.0214,-0.023,0,0,-0.0221,-0.0222,0,0,0,0,0,0,0,0,-0.0131,-0.0131,-0.0141,-0.0141,-0.0141,-0.015,-0.015,-0.015,-0.0153,-0.0153,-0.0153,-0.0153,-0.021,-0.0212,-0.0214,0,0,0,0,0,0,0,0,0,0,0,0,0,0,0,-0.0141,-0.0141,0,-0.015,-0.015,-0.015,-0.0153,-0.0153,-0.0153,-0.0153,-0.0211,-0.0212,-0.0214,0,0,0,0,0,0,0,0,0,0,0,0,0,0,0,0,0,0,0,0,0,0,0,0,0,0,0,0,0,0,0,0,0,0,0,0,0,0,0,0,0,0,0,0,0,0,0,0,0,0,0,0,0,0,0,0,0,0,0,0,0,0,0,0,0,0,0,0,0]}],[{"header":{"parameterUnit":"kt","parameterCategory":2,"dx":1,"dy":1,"la1":30.253999710083008,"la2":30.299108505249023,"lo1":-89.0895004272461,"lo2":-89.04439544677734,"nx":28,"ny":28,"refTime":"2022-10-05T21:00:00:Z","depth":"4","parameterNumber":3,"parameterNumberName":"V-component_of_CURRENTS"},"data":[-0.0882,-0.0918,-0.0947,-0.0986,-0.1023,-0.1091,-0.1127,-0.1141,-0.1097,-0.1096,-0.1063,-0.1068,-0.1026,-0.1051,-0.0987,-0.0987,-0.1065,-0.1004,-0.1003,-0.1164,-0.1176,-0.1186,-0.1169,0,0,0,0,0,-0.0916,-0.0934,-0.0976,-0.1031,-0.1098,-0.1149,-0.1191,-0.121,-0.1218,-0.1145,-0.1163,-0.1097,-0.1047,-0.1043,-0.1,-0.1061,-0.1111,-0.1012,-0.1149,-0.1171,-0.1184,-0.1163,0,0,0,0,0,0,-0.0968,-0.0978,-0.1031,-0.1083,-0.1147,-0.1185,-0.1218,-0.1207,-0.1221,-0.1222,-0.118,-0.1157,-0.1177,-0.1136,-0.1098,-0.108,-0.1091,-0.1112,-0.1127,-0.114,-0.1111,-0.1073,-0.0944,0,0,0,0,0,-0.1,-0.1044,-0.107,-0.1134,-0.119,-0.1228,-0.1276,-0.1278,-0.1308,-0.1349,-0.128,-0.1262,-0.1213,-0.1211,-0.1186,-0.1162,-0.1302,-0.1245,-0.1253,-0.1293,-0.1277,-0.1264,-0.1271,-0.1235,-0.1236,-0.1237,-0.1238,0,-0.1027,-0.1055,-0.113,-0.1159,-0.1199,-0.1258,-0.1289,-0.1354,-0.1366,-0.138,-0.1373,-0.1381,-0.1391,-0.1291,-0.1324,-0.1292,-0.128,-0.1279,-0.1321,-0.1298,-0.1281,-0.1286,-0.1289,-0.1249,-0.1248,-0.1247,-0.1246,0,-0.1039,-0.1072,-0.1115,-0.1176,-0.1207,-0.1246,-0.1315,-0.1341,-0.1398,-0.142,-0.145,-0.1499,-0.1471,-0.1488,-0.1478,-0.1457,-0.1409,-0.1367,-0.1471,-0.1455,-0.1309,-0.1308,-0.1266,-0.1262,-0.1259,-0.1256,-0.1254,0,-0.104,-0.1075,-0.1124,-0.1147,-0.1197,-0.1236,-0.1295,-0.1335,-0.1391,-0.1406,-0.1487,-0.1499,-0.1571,-0.1558,-0.1548,-0.1477,-0.153,-0.1431,-0.1408,-0.1523,-0.1521,-0.1516,-0.1514,-0.1539,-0.1539,-0.1539,-0.1539,0,-0.1033,-0.107,-0.1109,-0.1126,-0.1175,-0.1211,-0.125,-0.1303,-0.1324,-0.1413,-0.1444,-0.1519,-0.1559,-0.1565,-0.1546,-0.1563,-0.1528,-0.154,-0.1429,-0.1422,-0.1516,-0.1514,-0.1539,-0.1539,-0.1539,-0.154,-0.154,0,-0.1027,-0.1042,-0.1081,-0.1132,-0.1142,-0.1185,-0.1247,-0.1272,-0.1326,-0.1364,-0.1436,-0.1482,-0.1529,-0.153,-0.1548,-0.1554,-0.1542,-0.1527,-0.1525,-0.1425,-0.139,-0.1462,-0.1487,-0.1487,-0.1487,-0.1487,-0.1487,0,-0.1022,-0.1043,-0.1058,-0.1107,-0.1126,-0.1158,-0.1182,-0.1224,-0.127,-0.133,-0.1362,-0.1434,-0.1451,-0.1502,-0.1506,-0.1516,-0.1511,-0.151,-0.1493,-0.1492,-0.1393,-0.1394,-0.1512,-0.1485,-0.1485,-0.1485,-0.1485,0,-0.1015,-0.1039,-0.1047,-0.1071,-0.111,-0.1131,-0.1159,-0.1198,-0.1236,-0.1296,-0.1352,-0.1398,-0.1453,-0.1466,-0.1494,-0.1491,-0.1503,-0.1492,-0.1491,-0.1475,-0.1507,-0.1403,-0.1394,-0.1508,-0.1509,-0.151,-0.1484,0,-0.1005,-0.1035,-0.1039,-0.1069,-0.1092,-0.1115,-0.1139,-0.1178,-0.1227,-0.1261,-0.1332,-0.1371,-0.1432,-0.1433,-0.1442,-0.1476,-0.147,-0.1465,-0.1443,-0.1465,-0.1449,-0.1451,-0.143,-0.1429,-0.1429,-0.1429,0,0,-0.1003,-0.1024,-0.1039,-0.1046,-0.1068,-0.1105,-0.1127,-0.1148,-0.1221,-0.1247,-0.1266,-0.1365,-0.1382,-0.1418,-0.1429,-0.1435,-0.1436,-0.1432,-0.1455,-0.1458,-0.146,-0.1446,-0.1448,-0.1428,-0.1428,-0.1428,-0.1428,0,-0.0988,-0.1018,-0.1031,-0.1046,-0.1073,-0.1092,-0.1112,-0.1157,-0.1185,-0.1243,-0.1279,-0.1329,-0.1374,-0.1387,-0.1393,-0.1429,-0.1419,-0.1437,-0.1449,-0.1451,-0.1455,-0.1458,-0.1445,-0.1446,-0.1427,-0.1427,-0.1427,0,-0.0979,-0.0995,-0.1013,-0.1042,-0.1059,-0.1077,-0.1098,-0.1129,-0.1157,-0.1194,-0.1265,-0.1301,-0.1317,-0.1349,-0.1371,-0.1357,-0.1395,-0.139,-0.1392,-0.1401,-0.1403,-0.1407,-0.1411,-0.1364,-0.1364,-0.1364,0,0,-0.0968,-0.0991,-0.1013,-0.104,-0.1045,-0.1083,-0.1103,-0.1129,-0.1168,-0.1194,-0.124,-0.1277,-0.1302,-0.1321,-0.1346,-0.1375,-0.137,-0.1382,-0.1385,-0.1388,-0.1398,-0.1401,-0.1405,-0.1363,-0.1363,-0.1363,0,0,-0.0961,-0.0989,-0.1011,-0.1036,-0.1059,-0.108,-0.1096,-0.1133,-0.1185,-0.1202,-0.1232,-0.1242,-0.1297,-0.1299,-0.1288,-0.1329,-0.1316,-0.132,-0.1325,-0.1329,-0.1332,-0.1338,-0.1272,0,0,0,0,0,-0.0967,-0.0981,-0.1001,-0.1009,-0.1053,-0.1069,-0.1076,-0.111,-0.1145,-0.1162,-0.1211,-0.1209,-0.1291,-0.1282,-0.1289,-0.1299,-0.1353,-0.1355,-0.1356,-0.1372,-0.1376,-0.1379,0,0,0,0,0,0,-0.097,-0.0979,-0.1,-0.1019,-0.103,-0.1069,-0.1086,-0.1096,-0.1144,-0.115,-0.1201,-0.1209,-0.1213,-0.1278,-0.1285,-0.1294,-0.127,-0.1354,-0.1355,-0.1357,-0.1373,-0.1376,-0.1379,0,0,0,0,0,-0.0973,-0.0979,-0.1045,-0.1019,-0.1028,-0.1072,-0.1087,-0.1095,-0.1145,-0.1159,-0.117,-0.1175,-0.1211,-0.1221,-0.1282,-0.129,-0.1265,-0.1268,-0.1355,-0.1356,-0.1357,-0.1375,0,0,0,0,0,0,-0.0974,-0.0987,-0.1048,-0.1051,-0.1027,-0.1072,-0.1081,-0.1095,-0.1153,-0.1163,-0.1129,-0.1132,-0.121,-0.1217,-0.1224,-0.1289,-0.1261,-0.1264,-0.1266,-0.1356,-0.1357,-0.1357,0,0,0,0,0,0,-0.0984,-0.099,-0.105,-0.1057,-0.1062,-0.1071,-0.1079,-0.1102,-0.1154,-0.112,-0.1125,-0.113,-0.1205,-0.1215,-0.1221,-0.1255,-0.1258,-0.1261,-0.1263,-0.1264,-0.1356,-0.1357,0,0,0,0,0,0,-0.0987,-0.0993,-0.1056,-0.106,-0.1064,-0.111,-0.1093,-0.1142,-0.1147,-0.1118,-0.115,-0.1151,-0.1202,-0.1208,-0.1218,-0.125,-0.1254,-0.1259,-0.126,-0.1261,-0.1262,0,0,0,0,0,0,0,-0.099,-0.0945,-0.1024,-0.1062,-0.1066,-0.1085,-0.1087,-0.1088,-0.1148,-0.1149,-0.115,-0.1151,-0.1244,-0.1247,-0.125,-0.1245,0,0,-0.1258,-0.126,0,0,0,0,0,0,0,0,-0.0943,-0.0945,-0.1024,-0.1025,-0.1026,-0.1086,-0.1087,-0.1088,-0.1148,-0.1149,-0.115,-0.115,-0.1245,-0.1247,-0.1249,0,0,0,0,0,0,0,0,0,0,0,0,0,0,0,-0.1024,-0.1025,0,-0.1086,-0.1087,-0.1087,-0.1148,-0.1149,-0.1149,-0.115,-0.1246,-0.1247,-0.1249,0,0,0,0,0,0,0,0,0,0,0,0,0,0,0,0,0,0,0,0,0,0,0,0,0,0,0,0,0,0,0,0,0,0,0,0,0,0,0,0,0,0,0,0,0,0,0,0,0,0,0,0,0,0,0,0,0,0,0,0,0,0,0,0,0,0,0,0,0]}]]]